Terminal Aerodrome Forecast
Issued by NWS

Home | Current Version | Previous Version | Graphics & Text | Print | Product List | Glossary On
Versions: 1 2 3 4 5 6 7 8 9 10 11 12 13 14 15 16 17 18 19 20 21 22 23 24 25 26 27 28 29
326
FTUS43 KLOT 031731
TAFMDW
TAF
KMDW 031731Z 0318/0418 31008KT P6SM BKN080
     FM032000 26012G18KT P6SM BKN060
     FM040300 24011KT P6SM VCSH SCT040 BKN060
      TEMPO 0406/0409 4SM SHRA BKN015 OVC040
     FM040900 35015G22KT P6SM BKN007 OVC012
     FM041600 01017G24KT P6SM VCSH BKN020 OVC030=

USA.gov is the U.S. government's official web portal to all federal, state and local government web resources and services.